Regional Weather Roundup
Issued by NWS Memphis, TN

Home | Current Version | Previous Version | Text Only | Print | Product List | Glossary On
Versions: 1 2 3 4 5 6 7 8 9 10 11 12 13 14 15 16 17 18 19 20 21 22 23 24 25 26 27 28 29 30 31 32 33 34 35 36 37 38 39 40 41 42 43 44 45 46 47 48 49 50
000
ASUS44 KMEG 031110
RWRMEG
MEMPHIS CWA HOURLY WEATHER ROUNDUP
NATIONAL WEATHER SERVICE MEMPHIS TN
500 AM CST SAT DEC 03 2016

...WEST TENNESSEE...

CITY           SKY/WX    TMP DP  RH WIND       PRES   REMARKS
MEMPHIS INTL   NOT AVBL
NWS MEMPHIS      N/A     45 N/A N/A MISG        N/A
JACKSON        CLOUDY    43  33  68 E5        30.35R
BOLIVAR        PTCLDY    43  34  70 NE6       30.32S
LEXINGTON      CLEAR     37  32  81 CALM      30.32S
UNION CITY     CLEAR     39  34  81 CALM      30.34R
PARIS          CLEAR     36  30  80 CALM      30.34S
HUNTINGDON     CLOUDY    39  34  81 NE5       30.33S


...EASTERN ARKANSAS...

CITY           SKY/WX    TMP DP  RH WIND       PRES   REMARKS
JONESBORO      CLOUDY    43  37  79 NE8       30.33R
WEST MEMPHIS   CLOUDY    46  34  62 NE7       30.30S
NEWPORT        LGT RAIN  44  39  82 NE8       30.32S
BLYTHEVILLE    CLOUDY    44  34  67 E8        30.35R
SEARCY         CLOUDY    48  35  60 NE10      30.30F
PINE BLUFF     CLOUDY    49  38  65 NE7       30.24S
MONTICELLO     LGT RAIN  46  43  89 CALM      30.24R


...NORTH MISSISSIPPI...

CITY           SKY/WX    TMP DP  RH WIND       PRES   REMARKS
TUPELO         CLOUDY    43  36  76 N6        30.28F
OXFORD         CLOUDY    45  32  61 NE7       30.28F
BATESVILLE     CLOUDY    47  37  70 NE5       30.27F
TUNICA         CLOUDY    45  37  76 NE7       30.29S
CLARKSDALE     CLOUDY    48  39  71 NE7       30.25F
CORINTH        CLOUDY    43  34  70 N5        30.31S
GREENWOOD      LGT RAIN  47  35  63 N7        30.24S
COLUMBUS       CLOUDY    44  39  84 CALM      30.27R
STARKVILLE     CLOUDY    45  36  70 CALM      30.27F
GOLDEN TRIANGL CLOUDY    45  36  70 N5        30.23S


...SOUTHEAST MISSOURI...

CITY           SKY/WX    TMP DP  RH WIND       PRES   REMARKS
KENNETT        CLOUDY    43  37  81 NE6       30.35R
WEST PLAINS    CLOUDY    40  30  67 E5        30.32R
POPLAR BLUFF   MOCLDY    39  33  79 NE3       30.35R
CAPE GIRARDEAU CLOUDY    34  31  88 NE3       30.36S


...NORTHWEST ALABAMA...

CITY           SKY/WX    TMP DP  RH WIND       PRES   REMARKS
MUSCLE SHOALS  CLOUDY    43  32  65 NE5       30.33R


...MIDDLE TENNESSEE...

CITY           SKY/WX    TMP DP  RH WIND       PRES   REMARKS
NASHVILLE      CLOUDY    38  30  73 N5        30.35R WCI  34
COLUMBIA       CLEAR    N/A N/A N/A CALM      30.32R


...WESTERN KENTUCKY...

CITY           SKY/WX    TMP DP  RH WIND       PRES   REMARKS
PADUCAH        CLOUDY    33  29  85 CALM      30.35F
FORT CAMPBELL  CLEAR     34  31  88 NE5       30.34S WCI  30


...CENTRAL ARKANSAS...

CITY           SKY/WX    TMP DP  RH WIND       PRES   REMARKS
LITTLE ROCK    CLOUDY    47  40  76 NE9       30.26F


SKY/WX REPORTED AS FAIR MEANS FEW OR NO CLOUDS BELOW
12 THOUSAND FEET.




USA.gov is the U.S. government's official web portal to all federal, state and local government web resources and services.